Location: Unspecified
(43.4680°N, 87.1740°E)
Time: 05:07:02
(UTC+00:00)

Cosmos 1300 Rocket - Pass Details

Date: 17 April 2021
Orbit: 602 x 626 km, 82.5° (Epoch: 16 May)

Event Time Altitude Azimuth Distance (km) Brightness Sun altitude
Rises 21:52:33 0° 349° (NNW) 2,920 7.3 -16.0°
Reaches altitude 10° 21:54:48 10° 346° (NNW) 2,009 6.4 -15.6°
Maximum altitude 21:59:13 67° 264° (W) 679 3.5 -15.0°
Drops below altitude 10° 22:03:36 10° 182° (S) 1,991 5.8 -14.3°
Enters shadow 22:05:12 - 181° (S) 2,634 6.5 -14.0°
